Location: ?????????
(54.7630°N, 39.4991°E)
Time: 08:35:19
(UTC+00:00)

USA 32 - Pass Details

Date: 14 April 2026
Orbit: 776 x 778 km, 85.0° (Epoch: 9 May)

Event Time Altitude Azimuth Distance (km) Brightness Sun altitude
Exits shadow 18:10:45 - 184° (S) 2,807 6.6 -14.2°
Reaches altitude 10° 18:11:59 10° 185° (S) 2,327 6.2 -14.3°
Maximum altitude 18:17:13 88° 98° (E) 788 4.0 -14.9°
Drops below altitude 10° 18:22:29 10° 8° (N) 2,345 7.0 -15.4°
Sets 18:24:51 0° 8° (N) 3,277 7.8 -15.7°
